• In Russia
  • List of Countries
  • For 7 days
  • Water Temperature
  • Satellite Maps
  • Weather Map
  • Weather Widgets
  • user-avatar
    Login

    Hourly Weather Korçe

    Today, 24 September, Sunday

    Time Temperature Precipitation Wind Pressure Humidity
    00:00 +10°C° 0 mm 1 mps 669 mmHg 73%
    01:00 +10°C° 0 mm 1 mps 669 mmHg 73%
    02:00 +10°C° 0 mm 1 mps 669 mmHg 73%
    03:00 +9°C° 0 mm 1 mps 669 mmHg 73%
    04:00 +9°C° 0 mm 1 mps 669 mmHg 73%
    05:00 +10°C° 0 mm 1 mps 669 mmHg 69%
    06:00 +11°C° 0 mm 1 mps 669 mmHg 65%
    07:00 +12°C° 0 mm 1 mps 670 mmHg 60%
    08:00 +14°C° 0 mm 1 mps 670 mmHg 53%
    09:00 +16°C° 0 mm 1 mps 671 mmHg 45%
    10:00 +19°C° 0 mm 1 mps 671 mmHg 38%
    11:00 +19°C° 0 mm 2 mps 671 mmHg 37%
    12:00 +20°C° 0 mm 2 mps 671 mmHg 36%
    13:00 +20°C° 0 mm 2 mps 671 mmHg 34%
    14:00 +19°C° 0 mm 2 mps 670 mmHg 37%
    15:00 +19°C° 0 mm 2 mps 670 mmHg 40%
    16:00 +18°C° 0 mm 2 mps 670 mmHg 43%
    17:00 +18°C° 0 mm 1 mps 669 mmHg 50%
    18:00 +15°C° 0 mm 1 mps 669 mmHg 56%
    19:00 +13°C° 0 mm 1 mps 669 mmHg 63%
    20:00 +13°C° 0 mm 1 mps 669 mmHg 65%
    21:00 +12°C° 0 mm 1 mps 669 mmHg 68%
    22:00 +12°C° 0 mm 1 mps 669 mmHg 71%
    23:00 +11°C° 0 mm 1 mps 668 mmHg 72%

    Tomorrow, 25 September, Monday

    Time Temperature Precipitation Wind Pressure Humidity
    00:00 +11°C° 0 mm 1 mps 668 mmHg 73%
    01:00 +11°C° 0 mm 1 mps 668 mmHg 74%
    02:00 +11°C° 0 mm 1 mps 668 mmHg 74%
    03:00 +11°C° 0 mm 1 mps 668 mmHg 74%
    04:00 +11°C° 0 mm 1 mps 667 mmHg 73%
    05:00 +11°C° 0 mm 1 mps 668 mmHg 72%
    06:00 +12°C° 0 mm 1 mps 668 mmHg 71%
    07:00 +13°C° 0 mm 2 mps 668 mmHg 69%
    08:00 +14°C° 0.1 mm 2 mps 668 mmHg 66%
    09:00 +15°C° 0.1 mm 2 mps 669 mmHg 62%
    10:00 +16°C° 0.1 mm 2 mps 669 mmHg 58%
    11:00 +16°C° 0.2 mm 2 mps 669 mmHg 57%
    12:00 +17°C° 0.2 mm 2 mps 669 mmHg 56%
    13:00 +17°C° 0.2 mm 2 mps 669 mmHg 55%
    14:00 +17°C° 0.4 mm 2 mps 669 mmHg 57%
    15:00 +16°C° 0.4 mm 2 mps 669 mmHg 59%
    16:00 +16°C° 0.4 mm 2 mps 669 mmHg 61%
    17:00 +15°C° 0.2 mm 2 mps 668 mmHg 66%
    18:00 +13°C° 0.2 mm 1 mps 668 mmHg 72%
    19:00 +12°C° 0.2 mm 1 mps 668 mmHg 77%
    20:00 +12°C° 0 mm 1 mps 668 mmHg 79%
    21:00 +12°C° 0 mm 1 mps 668 mmHg 80%
    22:00 +11°C° 0 mm 1 mps 668 mmHg 82%
    23:00 +11°C° 0 mm 1 mps 668 mmHg 82%

    Day after tomorrow, 26 September, Tuesday

    Time Temperature Precipitation Wind Pressure Humidity
    00:00 +11°C° 0 mm 1 mps 668 mmHg 82%
    01:00 +10°C° 0 mm 1 mps 668 mmHg 82%
    02:00 +10°C° 0 mm 1 mps 668 mmHg 82%
    03:00 +10°C° 0 mm 1 mps 667 mmHg 82%
    04:00 +10°C° 0 mm 1 mps 667 mmHg 81%
    05:00 +11°C° 0 mm 1 mps 668 mmHg 78%
    06:00 +11°C° 0 mm 1 mps 668 mmHg 75%
    07:00 +12°C° 0 mm 1 mps 668 mmHg 71%
    08:00 +14°C° 0 mm 1 mps 669 mmHg 63%
    09:00 +16°C° 0 mm 1 mps 669 mmHg 55%
    10:00 +19°C° 0 mm 1 mps 670 mmHg 47%
    11:00 +20°C° 0.4 mm 1 mps 670 mmHg 46%
    12:00 +20°C° 0.4 mm 1 mps 670 mmHg 46%
    13:00 +19°C° 0.4 mm 2 mps 670 mmHg 45%
    14:00 +19°C° 0.9 mm 2 mps 669 mmHg 49%
    15:00 +18°C° 0.9 mm 2 mps 669 mmHg 52%
    16:00 +17°C° 0.9 mm 2 mps 669 mmHg 56%
    17:00 +16°C° 0.7 mm 1 mps 669 mmHg 62%
    18:00 +15°C° 0.7 mm 1 mps 669 mmHg 68%
    19:00 +13°C° 0.7 mm 1 mps 669 mmHg 75%
    20:00 +13°C° 0.2 mm 1 mps 669 mmHg 76%
    21:00 +12°C° 0.2 mm 1 mps 669 mmHg 77%
    22:00 +12°C° 0.2 mm 1 mps 669 mmHg 78%
    23:00 +12°C° 0 mm 1 mps 669 mmHg 79%

    27 September, Wednesday

    Time Temperature Precipitation Wind Pressure Humidity
    00:00 +11°C° 0 mm 1 mps 669 mmHg 80%
    01:00 +11°C° 0 mm 1 mps 669 mmHg 80%
    02:00 +11°C° 0 mm 1 mps 669 mmHg 81%
    03:00 +11°C° 0 mm 1 mps 669 mmHg 81%
    04:00 +10°C° 0 mm 1 mps 669 mmHg 82%
    05:00 +11°C° 0 mm 1 mps 669 mmHg 79%
    06:00 +12°C° 0 mm 1 mps 669 mmHg 76%
    07:00 +13°C° 0 mm 1 mps 670 mmHg 74%
    08:00 +15°C° 0.1 mm 1 mps 670 mmHg 66%
    09:00 +18°C° 0.1 mm 1 mps 671 mmHg 58%
    10:00 +19°C° 0.1 mm 1 mps 672 mmHg 50%
    11:00 +20°C° 0.4 mm 1 mps 671 mmHg 49%
    12:00 +20°C° 0.4 mm 1 mps 671 mmHg 48%
    13:00 +21°C° 0.4 mm 1 mps 671 mmHg 46%
    14:00 +20°C° 0.7 mm 1 mps 671 mmHg 49%
    15:00 +19°C° 0.7 mm 1 mps 671 mmHg 53%
    16:00 +19°C° 0.7 mm 1 mps 671 mmHg 56%
    17:00 +16°C° 0.6 mm 1 mps 670 mmHg 62%
    18:00 +15°C° 0.6 mm 1 mps 670 mmHg 69%
    19:00 +14°C° 0.6 mm 1 mps 670 mmHg 75%
    20:00 +13°C° 0.5 mm 1 mps 670 mmHg 76%
    21:00 +13°C° 0.5 mm 1 mps 670 mmHg 77%
    22:00 +13°C° 0.5 mm 1 mps 670 mmHg 79%
    23:00 +12°C° 0.4 mm 1 mps 670 mmHg 79%

    28 September, Thursday

    Time Temperature Precipitation Wind Pressure Humidity
    00:00 +12°C° 0.4 mm 1 mps 670 mmHg 80%
    01:00 +12°C° 0.4 mm 1 mps 670 mmHg 81%
    02:00 +12°C° 0.2 mm 1 mps 670 mmHg 82%
    03:00 +11°C° 0.2 mm 1 mps 670 mmHg 83%
    04:00 +11°C° 0.2 mm 1 mps 670 mmHg 84%
    05:00 +11°C° 0.1 mm 1 mps 670 mmHg 82%
    06:00 +12°C° 0.1 mm 2 mps 670 mmHg 80%
    07:00 +13°C° 0.1 mm 2 mps 671 mmHg 78%
    08:00 +14°C° 0.1 mm 2 mps 671 mmHg 72%
    09:00 +15°C° 0.1 mm 2 mps 671 mmHg 65%
    10:00 +17°C° 0.1 mm 2 mps 672 mmHg 59%
    11:00 +17°C° 0.5 mm 2 mps 672 mmHg 57%
    12:00 +18°C° 0.5 mm 2 mps 672 mmHg 55%
    13:00 +18°C° 0.5 mm 2 mps 672 mmHg 53%
    14:00 +18°C° 1 mm 2 mps 671 mmHg 56%
    15:00 +17°C° 1 mm 2 mps 671 mmHg 59%
    16:00 +17°C° 1 mm 2 mps 671 mmHg 62%
    17:00 +16°C° 0.7 mm 2 mps 671 mmHg 68%
    18:00 +14°C° 0.7 mm 2 mps 671 mmHg 73%
    19:00 +13°C° 0.7 mm 1 mps 671 mmHg 79%
    20:00 +13°C° 0.1 mm 2 mps 671 mmHg 81%
    21:00 +12°C° 0.1 mm 2 mps 671 mmHg 82%
    22:00 +12°C° 0.1 mm 2 mps 671 mmHg 84%
    23:00 +12°C° 0 mm 2 mps 671 mmHg 84%

    29 September, Friday

    Time Temperature Precipitation Wind Pressure Humidity
    00:00 +10°C° 0 mm 2 mps 671 mmHg 85%
    01:00 +10°C° 0 mm 2 mps 670 mmHg 86%
    02:00 +10°C° 0 mm 2 mps 670 mmHg 87%
    03:00 +10°C° 0 mm 2 mps 670 mmHg 87%
    04:00 +9°C° 0 mm 2 mps 670 mmHg 87%
    05:00 +10°C° 0 mm 2 mps 670 mmHg 86%
    06:00 +10°C° 0 mm 2 mps 670 mmHg 84%
    07:00 +12°C° 0 mm 2 mps 670 mmHg 82%
    08:00 +12°C° 0 mm 3 mps 671 mmHg 74%
    09:00 +13°C° 0 mm 3 mps 671 mmHg 67%
    10:00 +16°C° 0 mm 3 mps 671 mmHg 60%
    11:00 +16°C° 0 mm 3 mps 671 mmHg 57%
    12:00 +17°C° 0 mm 3 mps 671 mmHg 55%
    13:00 +17°C° 0 mm 3 mps 671 mmHg 52%
    14:00 +17°C° 0 mm 3 mps 671 mmHg 54%
    15:00 +16°C° 0 mm 3 mps 670 mmHg 56%
    16:00 +16°C° 0 mm 3 mps 670 mmHg 57%
    17:00 +14°C° 0 mm 2 mps 670 mmHg 63%
    18:00 +13°C° 0 mm 2 mps 670 mmHg 69%
    19:00 +10°C° 0 mm 2 mps 669 mmHg 75%
    20:00 +10°C° 0 mm 2 mps 669 mmHg 77%
    21:00 +9°C° 0 mm 2 mps 669 mmHg 79%
    22:00 +9°C° 0 mm 2 mps 669 mmHg 81%
    23:00 +8°C° 0 mm 2 mps 669 mmHg 81%
    Show more